Location: Bacea
(45.9500°N, 22.6667°E)
Time: 10:41:20
(UTC+00:00)

CZ-4 R/B - Pass Details

Date: 16 October 2021
Orbit: 530 x 595 km, 97.8° (Epoch: 07 December)

Event Time Altitude Azimuth Distance (km) Brightness Sun altitude
Rises 16:27:39 0° 140° (SE) 2,706 4.5 -8.8°
Reaches altitude 10° 16:29:56 10° 129° (SE) 1,828 3.5 -9.2°
Maximum altitude 16:33:23 30° 68° (ENE) 1,028 2.2 -9.8°
Drops below altitude 10° 16:36:56 10° 7° (N) 1,876 3.9 -10.4°
Sets 16:39:17 0° 357° (N) 2,790 4.9 -10.8°
